Location: Unspecified
(34.4950°S, 58.5160°W)
Time: 10:22:42
(UTC+00:00)

ACS3 Solar Sail - Pass Details

Date: 16 February 2026
Orbit: 886 x 974 km, 97.2° (Epoch: 9 March)

Event Time Altitude Azimuth Distance (km) Brightness Sun altitude
Exits shadow 05:19:43 26° 187° (S) 1,758 3.5 -40.2°
Drops below altitude 10° 05:22:13 10° 189° (S) 2,683 4.6 -40.0°
Sets 05:24:42 0° 189° (S) 3,648 5.4 -39.8°
